Time,TemperatureF,DewpointF,PressureIn,WindDirection,WindDirectionDegrees,WindSpeedMPH,WindSpeedGustMPH,Humidity,HourlyPrecipIn,Conditions,Clouds,dailyrainin,SoftwareType,DateUTC
2013-02-24 00:00:00,50.3,38.6,29.92,ENE,68,0.0,0.0,64,0.00,,,0.00,LWC V2.11 B50,2013-02-24 06:00:00,
2013-02-24 00:10:00,49.7,38.4,29.92,ENE,68,0.0,0.0,65,0.00,,,0.00,LWC V2.11 B50,2013-02-24 06:10:00,
2013-02-24 00:20:00,49.3,38.4,29.91,ENE,68,0.0,0.0,66,0.00,,,0.00,LWC V2.11 B50,2013-02-24 06:20:00,
2013-02-24 00:30:00,48.9,38.4,29.92,ENE,68,0.0,0.0,67,0.00,,,0.00,LWC V2.11 B50,2013-02-24 06:30:00,
2013-02-24 00:40:00,48.5,38.4,29.92,ENE,68,0.0,0.0,68,0.00,,,0.00,LWC V2.11 B50,2013-02-24 06:40:00,
2013-02-24 00:50:00,48.2,38.5,29.91,ENE,68,0.0,0.0,69,0.00,,,0.00,LWC V2.11 B50,2013-02-24 06:50:00,
2013-02-24 01:00:00,48.2,38.5,29.91,ENE,68,0.0,0.0,69,0.00,,,0.00,LWC V2.11 B50,2013-02-24 07:00:00,
2013-02-24 01:10:00,48.1,38.4,29.90,ENE,68,0.0,0.0,69,0.00,,,0.00,LWC V2.11 B50,2013-02-24 07:10:00,
2013-02-24 01:20:00,47.6,38.3,29.91,ENE,68,0.0,0.0,70,0.00,,,0.00,LWC V2.11 B50,2013-02-24 07:20:00,
2013-02-24 01:30:00,47.1,38.6,29.91,ENE,68,0.0,0.0,72,0.00,,,0.00,LWC V2.11 B50,2013-02-24 07:30:00,
2013-02-24 01:40:00,46.7,38.5,29.91,ENE,68,0.0,0.0,73,0.00,,,0.00,LWC V2.11 B50,2013-02-24 07:40:00,
2013-02-24 01:50:00,46.3,38.1,29.90,ENE,68,0.0,0.0,73,0.00,,,0.00,LWC V2.11 B50,2013-02-24 07:50:00,
2013-02-24 02:00:00,46.1,38.3,29.90,ENE,68,0.0,0.0,74,0.00,,,0.00,LWC V2.11 B50,2013-02-24 08:00:00,
2013-02-24 02:10:00,45.8,38.7,29.90,ENE,68,0.0,0.0,76,0.00,,,0.00,LWC V2.11 B50,2013-02-24 08:10:00,
2013-02-24 02:20:00,45.5,38.0,29.90,ENE,68,0.0,1.0,75,0.00,,,0.00,LWC V2.11 B50,2013-02-24 08:20:00,
2013-02-24 02:30:00,45.2,38.1,29.90,ENE,68,0.0,0.0,76,0.00,,,0.00,LWC V2.11 B50,2013-02-24 08:30:00,
2013-02-24 02:40:00,45.2,38.1,29.89,ENE,68,0.0,1.0,76,0.00,,,0.00,LWC V2.11 B50,2013-02-24 08:40:00,
2013-02-24 02:50:00,44.9,37.8,29.89,ENE,68,0.0,3.0,76,0.00,,,0.00,LWC V2.11 B50,2013-02-24 08:50:00,
2013-02-24 03:00:00,44.7,37.6,29.89,ENE,68,1.0,2.0,76,0.00,,,0.00,LWC V2.11 B50,2013-02-24 09:00:00,
2013-02-24 03:10:00,44.5,37.4,29.88,ENE,68,0.0,0.0,76,0.00,,,0.00,LWC V2.11 B50,2013-02-24 09:10:00,
2013-02-24 03:20:00,44.3,37.5,29.88,ENE,68,0.0,2.0,77,0.00,,,0.00,LWC V2.11 B50,2013-02-24 09:20:00,
2013-02-24 03:30:00,44.3,37.5,29.88,ENE,68,1.0,3.0,77,0.00,,,0.00,LWC V2.11 B50,2013-02-24 09:30:00,
2013-02-24 03:40:00,43.9,37.2,29.87,ENE,68,1.0,2.0,77,0.00,,,0.00,LWC V2.11 B50,2013-02-24 09:40:00,
2013-02-24 03:50:00,43.4,37.0,29.87,ENE,68,1.0,2.0,78,0.00,,,0.00,LWC V2.11 B50,2013-02-24 09:50:00,
2013-02-24 04:00:00,43.3,36.9,29.86,ENE,68,1.0,3.0,78,0.00,,,0.00,LWC V2.11 B50,2013-02-24 10:00:00,
2013-02-24 04:10:00,43.3,36.9,29.86,ENE,68,0.0,1.0,78,0.00,,,0.00,LWC V2.11 B50,2013-02-24 10:10:00,
2013-02-24 04:20:00,43.1,37.0,29.86,ENE,68,1.0,3.0,79,0.00,,,0.00,LWC V2.11 B50,2013-02-24 10:20:00,
2013-02-24 04:30:00,43.0,37.3,29.87,ENE,68,0.0,1.0,80,0.00,,,0.00,LWC V2.11 B50,2013-02-24 10:30:00,
2013-02-24 04:40:00,43.0,37.3,29.87,ENE,68,0.0,1.0,80,0.00,,,0.00,LWC V2.11 B50,2013-02-24 10:40:00,
2013-02-24 04:50:00,43.1,37.4,29.87,ENE,68,0.0,0.0,80,0.00,,,0.00,LWC V2.11 B50,2013-02-24 10:50:00,
2013-02-24 05:00:00,43.1,37.4,29.87,ENE,68,0.0,0.0,80,0.00,,,0.00,LWC V2.11 B50,2013-02-24 11:00:00,
2013-02-24 05:10:00,43.1,37.7,29.87,ENE,68,0.0,0.0,81,0.00,,,0.00,LWC V2.11 B50,2013-02-24 11:10:00,
2013-02-24 05:20:00,43.3,37.9,29.87,ENE,68,0.0,1.0,81,0.00,,,0.00,LWC V2.11 B50,2013-02-24 11:20:00,
2013-02-24 05:30:00,43.2,37.8,29.87,ENE,68,0.0,0.0,81,0.00,,,0.00,LWC V2.11 B50,2013-02-24 11:30:00,
2013-02-24 05:40:00,43.1,37.7,29.87,ENE,68,0.0,0.0,81,0.00,,,0.00,LWC V2.11 B50,2013-02-24 11:40:00,
2013-02-24 05:50:00,43.1,38.0,29.87,ENE,68,0.0,1.0,82,0.00,,,0.00,LWC V2.11 B50,2013-02-24 11:50:00,
2013-02-24 06:00:00,43.0,37.9,29.87,ENE,68,0.0,1.0,82,0.00,,,0.00,LWC V2.11 B50,2013-02-24 12:00:00,
2013-02-24 06:10:00,43.1,38.0,29.87,ENE,68,1.0,3.0,82,0.00,,,0.00,LWC V2.11 B50,2013-02-24 12:10:00,
2013-02-24 06:20:00,42.5,36.8,29.87,ENE,68,1.0,3.0,80,0.00,,,0.00,LWC V2.11 B50,2013-02-24 12:20:00,
2013-02-24 06:30:00,41.2,36.1,29.87,NNE,22,1.0,4.0,82,0.00,,,0.00,LWC V2.11 B50,2013-02-24 12:30:00,
2013-02-24 06:40:00,40.7,35.9,29.87,NNW,338,0.0,2.0,83,0.00,,,0.00,LWC V2.11 B50,2013-02-24 12:40:00,
2013-02-24 06:50:00,40.6,36.2,29.87,NNW,338,1.0,2.0,84,0.00,,,0.00,LWC V2.11 B50,2013-02-24 12:50:00,
2013-02-24 07:00:00,40.6,36.4,29.87,NNW,338,0.0,2.0,85,0.00,,,0.00,LWC V2.11 B50,2013-02-24 13:00:00,
2013-02-24 07:10:00,40.9,36.8,29.86,NNW,338,0.0,2.0,85,0.00,,,0.00,LWC V2.11 B50,2013-02-24 13:10:00,
2013-02-24 07:20:00,41.2,37.0,29.86,NNW,338,0.0,2.0,85,0.00,,,0.00,LWC V2.11 B50,2013-02-24 13:20:00,
2013-02-24 07:30:00,41.4,37.2,29.87,NNW,338,0.0,1.0,85,0.00,,,0.00,LWC V2.11 B50,2013-02-24 13:30:00,
2013-02-24 07:40:00,42.0,37.8,29.87,NNW,338,1.0,4.0,85,0.00,,,0.00,LWC V2.11 B50,2013-02-24 13:40:00,
2013-02-24 07:50:00,42.5,37.7,29.88,NNW,338,0.0,1.0,83,0.00,,,0.00,LWC V2.11 B50,2013-02-24 13:50:00,
2013-02-24 08:00:00,42.9,37.8,29.88,NNW,338,0.0,2.0,82,0.00,,,0.00,LWC V2.11 B50,2013-02-24 14:00:00,
2013-02-24 08:10:00,43.6,38.2,29.88,NNW,338,0.0,1.0,81,0.00,,,0.00,LWC V2.11 B50,2013-02-24 14:10:00,
2013-02-24 08:20:00,44.7,38.9,29.88,NNW,338,0.0,1.0,80,0.00,,,0.00,LWC V2.11 B50,2013-02-24 14:20:00,
2013-02-24 08:30:00,45.5,39.4,29.88,NNW,338,0.0,1.0,79,0.00,,,0.00,LWC V2.11 B50,2013-02-24 14:30:00,
2013-02-24 08:40:00,47.8,40.6,29.89,NE,45,1.0,3.0,76,0.00,,,0.00,LWC V2.11 B50,2013-02-24 14:40:00,
2013-02-24 08:50:00,49.2,40.9,29.89,NE,45,1.0,3.0,73,0.00,,,0.00,LWC V2.11 B50,2013-02-24 14:50:00,
2013-02-24 09:00:00,50.5,41.8,29.89,ENE,68,2.0,5.0,72,0.00,,,0.00,LWC V2.11 B50,2013-02-24 15:00:00,
2013-02-24 09:10:00,51.5,42.0,29.89,NE,45,1.0,4.0,70,0.00,,,0.00,LWC V2.11 B50,2013-02-24 15:10:00,
2013-02-24 09:20:00,52.8,42.9,29.89,NE,45,1.0,7.0,69,0.00,,,0.00,LWC V2.11 B50,2013-02-24 15:20:00,
2013-02-24 09:30:00,53.9,43.2,29.89,East,90,1.0,5.0,67,0.00,,,0.00,LWC V2.11 B50,2013-02-24 15:30:00,
2013-02-24 09:40:00,55.1,44.3,29.88,East,90,1.0,7.0,67,0.00,,,0.00,LWC V2.11 B50,2013-02-24 15:40:00,
2013-02-24 09:50:00,56.4,45.2,29.88,East,90,1.0,6.0,66,0.00,,,0.00,LWC V2.11 B50,2013-02-24 15:50:00,
2013-02-24 10:00:00,57.4,45.3,29.89,ENE,68,1.0,4.0,64,0.00,,,0.00,LWC V2.11 B50,2013-02-24 16:00:00,
2013-02-24 10:10:00,58.0,46.3,29.89,SE,135,3.0,6.0,65,0.00,,,0.00,LWC V2.11 B50,2013-02-24 16:10:00,
2013-02-24 10:20:00,58.7,47.4,29.88,ESE,112,2.0,7.0,66,0.00,,,0.00,LWC V2.11 B50,2013-02-24 16:20:00,
2013-02-24 10:30:00,60.0,48.2,29.88,East,90,3.0,7.0,65,0.00,,,0.00,LWC V2.11 B50,2013-02-24 16:30:00,
2013-02-24 10:40:00,60.9,49.0,29.87,ESE,112,3.0,7.0,65,0.00,,,0.00,LWC V2.11 B50,2013-02-24 16:40:00,
2013-02-24 10:50:00,61.7,49.8,29.87,ESE,112,2.0,5.0,65,0.00,,,0.00,LWC V2.11 B50,2013-02-24 16:50:00,
2013-02-24 11:00:00,62.9,51.0,29.86,SSE,158,2.0,6.0,65,0.00,,,0.00,LWC V2.11 B50,2013-02-24 17:00:00,
2013-02-24 11:10:00,63.4,51.0,29.86,SE,135,3.0,7.0,64,0.00,,,0.00,LWC V2.11 B50,2013-02-24 17:10:00,
2013-02-24 11:20:00,64.2,51.8,29.86,ESE,112,3.0,9.0,64,0.00,,,0.00,LWC V2.11 B50,2013-02-24 17:20:00,
2013-02-24 11:30:00,65.2,52.3,29.85,South,180,2.0,6.0,63,0.00,,,0.00,LWC V2.11 B50,2013-02-24 17:30:00,
2013-02-24 11:40:00,66.7,53.7,29.85,SE,135,3.0,12.0,63,0.00,,,0.00,LWC V2.11 B50,2013-02-24 17:40:00,
2013-02-24 11:50:00,66.8,53.8,29.84,SE,135,3.0,8.0,63,0.00,,,0.00,LWC V2.11 B50,2013-02-24 17:50:00,
2013-02-24 12:00:00,67.9,54.4,29.84,SSW,202,4.0,9.0,62,0.00,,,0.00,LWC V2.11 B50,2013-02-24 18:00:00,
2013-02-24 12:10:00,67.5,53.6,29.84,SSE,158,4.0,9.0,61,0.00,,,0.00,LWC V2.11 B50,2013-02-24 18:10:00,
2013-02-24 12:20:00,67.6,53.7,29.83,SSE,158,4.0,9.0,61,0.00,,,0.00,LWC V2.11 B50,2013-02-24 18:20:00,
2013-02-24 12:30:00,67.5,54.0,29.83,SSE,158,3.0,9.0,62,0.00,,,0.00,LWC V2.11 B50,2013-02-24 18:30:00,
2013-02-24 12:40:00,67.8,53.9,29.82,South,180,4.0,11.0,61,0.00,,,0.00,LWC V2.11 B50,2013-02-24 18:40:00,
2013-02-24 12:50:00,67.2,53.7,29.81,South,180,4.0,9.0,62,0.00,,,0.00,LWC V2.11 B50,2013-02-24 18:50:00,
2013-02-24 13:00:00,67.4,54.4,29.80,South,180,2.0,6.0,63,0.00,,,0.00,LWC V2.11 B50,2013-02-24 19:00:00,
2013-02-24 13:10:00,68.1,54.1,29.80,South,180,2.0,9.0,61,0.00,,,0.00,LWC V2.11 B50,2013-02-24 19:10:00,
2013-02-24 13:20:00,69.3,54.8,29.79,SSE,158,2.0,8.0,60,0.00,,,0.00,LWC V2.11 B50,2013-02-24 19:20:00,
2013-02-24 13:30:00,68.5,53.6,29.78,South,180,3.0,6.0,59,0.00,,,0.00,LWC V2.11 B50,2013-02-24 19:30:00,
2013-02-24 13:40:00,68.1,53.7,29.78,SSE,158,2.0,7.0,60,0.00,,,0.00,LWC V2.11 B50,2013-02-24 19:40:00,
2013-02-24 13:50:00,67.4,53.9,29.77,South,180,3.0,6.0,62,0.00,,,0.00,LWC V2.11 B50,2013-02-24 19:50:00,
2013-02-24 14:00:00,68.4,54.4,29.75,South,180,4.0,10.0,61,0.00,,,0.00,LWC V2.11 B50,2013-02-24 20:00:00,
2013-02-24 14:10:00,69.2,55.2,29.75,South,180,4.0,9.0,61,0.00,,,0.00,LWC V2.11 B50,2013-02-24 20:10:00,
2013-02-24 14:20:00,70.0,55.0,29.74,SSE,158,3.0,8.0,59,0.00,,,0.00,LWC V2.11 B50,2013-02-24 20:20:00,
2013-02-24 14:30:00,70.2,55.2,29.74,South,180,3.0,7.0,59,0.00,,,0.00,LWC V2.11 B50,2013-02-24 20:30:00,
2013-02-24 14:40:00,69.5,55.0,29.73,South,180,3.0,7.0,60,0.00,,,0.00,LWC V2.11 B50,2013-02-24 20:40:00,
2013-02-24 14:50:00,69.4,54.9,29.73,SSE,158,3.0,8.0,60,0.00,,,0.00,LWC V2.11 B50,2013-02-24 20:50:00,
2013-02-24 15:00:00,69.4,55.4,29.72,South,180,3.0,11.0,61,0.00,,,0.00,LWC V2.11 B50,2013-02-24 21:00:00,
2013-02-24 15:10:00,70.0,55.9,29.72,SSE,158,2.0,5.0,61,0.00,,,0.00,LWC V2.11 B50,2013-02-24 21:10:00,
2013-02-24 15:20:00,69.4,55.8,29.71,SSW,202,3.0,7.0,62,0.00,,,0.00,LWC V2.11 B50,2013-02-24 21:20:00,
2013-02-24 15:30:00,69.1,55.1,29.70,South,180,3.0,10.0,61,0.00,,,0.00,LWC V2.11 B50,2013-02-24 21:30:00,
2013-02-24 15:40:00,69.4,55.8,29.70,South,180,4.0,9.0,62,0.00,,,0.00,LWC V2.11 B50,2013-02-24 21:40:00,
2013-02-24 15:50:00,69.5,55.9,29.69,South,180,3.0,8.0,62,0.00,,,0.00,LWC V2.11 B50,2013-02-24 21:50:00,
2013-02-24 16:00:00,69.2,56.5,29.69,SSE,158,2.0,7.0,64,0.00,,,0.00,LWC V2.11 B50,2013-02-24 22:00:00,
2013-02-24 16:10:00,69.6,56.9,29.68,SSE,158,2.0,8.0,64,0.00,,,0.00,LWC V2.11 B50,2013-02-24 22:10:00,
2013-02-24 16:20:00,69.5,56.8,29.68,SSE,158,3.0,6.0,64,0.00,,,0.00,LWC V2.11 B50,2013-02-24 22:20:00,
2013-02-24 16:30:00,69.3,57.0,29.68,SE,135,3.0,10.0,65,0.00,,,0.00,LWC V2.11 B50,2013-02-24 22:30:00,
2013-02-24 16:40:00,68.8,57.4,29.68,South,180,2.0,8.0,67,0.00,,,0.00,LWC V2.11 B50,2013-02-24 22:40:00,
2013-02-24 16:50:00,68.5,57.5,29.67,ESE,112,2.0,11.0,68,0.00,,,0.00,LWC V2.11 B50,2013-02-24 22:50:00,
2013-02-24 17:00:00,68.3,57.7,29.68,SE,135,2.0,9.0,69,0.00,,,0.00,LWC V2.11 B50,2013-02-24 23:00:00,
2013-02-24 17:10:00,67.9,57.7,29.68,SSE,158,1.0,5.0,70,0.00,,,0.00,LWC V2.11 B50,2013-02-24 23:10:00,
2013-02-24 17:20:00,67.5,58.5,29.67,South,180,3.0,9.0,73,0.00,,,0.00,LWC V2.11 B50,2013-02-24 23:20:00,
2013-02-24 17:30:00,67.2,58.6,29.67,SE,135,1.0,5.0,74,0.00,,,0.00,LWC V2.11 B50,2013-02-24 23:30:00,
2013-02-24 17:40:00,67.0,58.8,29.67,South,180,1.0,5.0,75,0.00,,,0.00,LWC V2.11 B50,2013-02-24 23:40:00,
2013-02-24 17:50:00,66.9,58.7,29.67,SSE,158,1.0,5.0,75,0.00,,,0.00,LWC V2.11 B50,2013-02-24 23:50:00,
2013-02-24 18:00:00,66.8,58.6,29.68,South,180,2.0,6.0,75,0.00,,,0.00,LWC V2.11 B50,2013-02-25 00:00:00,
2013-02-24 18:10:00,66.8,58.6,29.68,South,180,3.0,6.0,75,0.00,,,0.00,LWC V2.11 B50,2013-02-25 00:10:00,
2013-02-24 18:20:00,66.5,58.7,29.68,ESE,112,2.0,6.0,76,0.00,,,0.00,LWC V2.11 B50,2013-02-25 00:20:00,
2013-02-24 18:32:00,65.8,59.1,29.68,East,90,1.0,5.0,79,0.00,,,0.00,LWC V2.11 B50,2013-02-25 00:32:00,
2013-02-24 18:34:00,65.7,59.0,29.68,East,90,2.0,4.0,79,0.00,,,0.00,LWC V2.11 B50,2013-02-25 00:34:00,
2013-02-24 18:36:00,65.6,59.3,29.68,ESE,104,0.0,5.0,80,0.00,,,0.00,LWC V2.11 B50,2013-02-25 00:36:00,
2013-02-24 18:41:00,65.5,59.2,29.68,East,91,4.0,5.0,80,0.00,,,0.00,LWC V2.11 B50,2013-02-25 00:41:00,
2013-02-24 18:46:00,65.3,59.3,29.69,SSE,155,1.0,4.0,81,0.00,,,0.00,LWC V2.11 B50,2013-02-25 00:46:00,
2013-02-24 18:51:00,65.2,59.2,29.69,SSE,163,1.0,2.0,81,0.00,,,0.00,LWC V2.11 B50,2013-02-25 00:51:00,
2013-02-24 18:56:00,65.2,59.6,29.69,South,175,1.0,5.0,82,0.00,,,0.00,LWC V2.11 B50,2013-02-25 00:56:00,
2013-02-24 19:01:00,65.0,59.4,29.68,SE,141,0.0,2.0,82,0.00,,,0.00,LWC V2.11 B50,2013-02-25 01:01:00,
2013-02-24 19:06:00,64.9,59.3,29.68,ESE,121,2.0,8.0,82,0.00,,,0.00,LWC V2.11 B50,2013-02-25 01:06:00,
2013-02-24 19:11:00,64.9,59.3,29.68,SE,128,2.0,6.0,82,0.00,,,0.00,LWC V2.11 B50,2013-02-25 01:11:00,
2013-02-24 19:16:00,64.8,59.2,29.67,ENE,72,1.0,5.0,82,0.00,,,0.00,LWC V2.11 B50,2013-02-25 01:16:00,
2013-02-24 19:21:00,64.8,59.2,29.67,East,101,4.0,4.0,82,0.00,,,0.00,LWC V2.11 B50,2013-02-25 01:21:00,
2013-02-24 19:26:00,64.8,59.2,29.67,SE,129,1.0,6.0,82,0.00,,,0.00,LWC V2.11 B50,2013-02-25 01:26:00,
2013-02-24 19:31:00,64.8,59.2,29.67,ESE,113,1.0,5.0,82,0.00,,,0.00,LWC V2.11 B50,2013-02-25 01:31:00,
2013-02-24 19:36:00,64.8,59.2,29.67,ESE,103,1.0,4.0,82,0.00,,,0.00,LWC V2.11 B50,2013-02-25 01:36:00,
2013-02-24 19:41:00,64.8,59.2,29.68,SSE,148,0.0,6.0,82,0.00,,,0.00,LWC V2.11 B50,2013-02-25 01:41:00,
2013-02-24 19:47:00,64.7,59.1,29.68,ESE,123,1.0,2.0,82,0.00,,,0.00,LWC V2.11 B50,2013-02-25 01:47:00,
2013-02-24 19:52:00,64.7,59.1,29.68,SE,128,2.0,9.0,82,0.00,,,0.00,LWC V2.11 B50,2013-02-25 01:52:00,
2013-02-24 19:57:00,64.7,59.4,29.68,ESE,123,1.0,2.0,83,0.00,,,0.00,LWC V2.11 B50,2013-02-25 01:57:00,
2013-02-24 20:02:00,64.6,59.3,29.68,East,84,2.0,6.0,83,0.00,,,0.00,LWC V2.11 B50,2013-02-25 02:02:00,
2013-02-24 20:07:00,64.6,59.3,29.68,ESE,108,0.0,2.0,83,0.00,,,0.00,LWC V2.11 B50,2013-02-25 02:07:00,
2013-02-24 20:12:00,64.6,59.3,29.68,SSE,153,5.0,5.0,83,0.00,,,0.00,LWC V2.11 B50,2013-02-25 02:12:00,
2013-02-24 20:17:00,64.5,59.6,29.67,East,95,1.0,5.0,84,0.00,,,0.00,LWC V2.11 B50,2013-02-25 02:17:00,
2013-02-24 20:22:00,64.4,59.5,29.67,ENE,69,0.0,3.0,84,0.00,,,0.00,LWC V2.11 B50,2013-02-25 02:22:00,
2013-02-24 20:27:00,64.4,59.5,29.68,SE,141,0.0,2.0,84,0.00,,,0.00,LWC V2.11 B50,2013-02-25 02:27:00,
2013-02-24 20:32:00,64.3,59.4,29.67,ESE,103,0.0,2.0,84,0.00,,,0.00,LWC V2.11 B50,2013-02-25 02:32:00,
2013-02-24 20:37:00,64.3,59.4,29.68,ESE,107,0.0,6.0,84,0.00,,,0.00,LWC V2.11 B50,2013-02-25 02:37:00,
2013-02-24 20:42:00,64.2,59.3,29.68,ESE,119,1.0,4.0,84,0.00,,,0.00,LWC V2.11 B50,2013-02-25 02:42:00,
2013-02-24 20:47:00,64.1,59.2,29.67,SE,129,0.0,2.0,84,0.00,,,0.00,LWC V2.11 B50,2013-02-25 02:47:00,
2013-02-24 20:52:00,64.1,59.2,29.67,East,95,5.0,6.0,84,0.00,,,0.00,LWC V2.11 B50,2013-02-25 02:52:00,
2013-02-24 20:57:00,64.0,59.4,29.67,SE,144,2.0,5.0,85,0.00,,,0.00,LWC V2.11 B50,2013-02-25 02:57:00,
2013-02-24 21:02:00,63.9,59.3,29.67,South,174,0.0,4.0,85,0.00,,,0.00,LWC V2.11 B50,2013-02-25 03:02:00,
2013-02-24 21:07:00,63.9,59.3,29.67,ESE,108,1.0,2.0,85,0.00,,,0.00,LWC V2.11 B50,2013-02-25 03:07:00,
2013-02-24 21:12:00,63.9,59.3,29.67,East,81,1.0,1.0,85,0.00,,,0.00,LWC V2.11 B50,2013-02-25 03:12:00,
2013-02-24 21:17:00,63.8,59.2,29.67,ESE,118,0.0,4.0,85,0.00,,,0.00,LWC V2.11 B50,2013-02-25 03:17:00,
2013-02-24 21:22:00,63.8,59.2,29.67,SSE,148,0.0,5.0,85,0.00,,,0.00,LWC V2.11 B50,2013-02-25 03:22:00,
2013-02-24 21:27:00,63.8,59.2,29.67,SE,135,0.0,1.0,85,0.00,,,0.00,LWC V2.11 B50,2013-02-25 03:27:00,
2013-02-24 21:32:00,63.7,59.4,29.67,SE,127,2.0,5.0,86,0.00,,,0.00,LWC V2.11 B50,2013-02-25 03:32:00,
2013-02-24 21:37:00,63.6,59.3,29.67,ESE,103,0.0,4.0,86,0.00,,,0.00,LWC V2.11 B50,2013-02-25 03:37:00,
2013-02-24 21:42:00,63.6,59.3,29.66,ESE,113,1.0,5.0,86,0.00,,,0.00,LWC V2.11 B50,2013-02-25 03:42:00,
2013-02-24 21:47:00,63.4,59.5,29.66,SE,126,2.0,8.0,87,0.00,,,0.00,LWC V2.11 B50,2013-02-25 03:47:00,
2013-02-24 21:52:00,63.3,59.4,29.65,SE,139,4.0,5.0,87,0.00,,,0.00,LWC V2.11 B50,2013-02-25 03:52:00,
2013-02-24 21:57:00,63.2,59.6,29.65,East,92,0.0,6.0,88,0.00,,,0.00,LWC V2.11 B50,2013-02-25 03:57:00,
2013-02-24 22:02:00,63.1,59.5,29.65,SE,135,2.0,6.0,88,0.00,,,0.00,LWC V2.11 B50,2013-02-25 04:02:00,
2013-02-24 22:07:00,63.1,59.8,29.65,ESE,112,2.0,9.0,89,0.00,,,0.00,LWC V2.11 B50,2013-02-25 04:07:00,
2013-02-24 22:12:00,62.9,59.6,29.65,ESE,112,0.0,4.0,89,0.00,,,0.00,LWC V2.11 B50,2013-02-25 04:12:00,
2013-02-24 22:18:00,62.9,59.6,29.65,SE,130,1.0,7.0,89,0.00,,,0.00,LWC V2.11 B50,2013-02-25 04:18:00,
2013-02-24 22:23:00,62.7,59.7,29.64,East,82,2.0,6.0,90,0.00,,,0.00,LWC V2.11 B50,2013-02-25 04:23:00,
2013-02-24 22:28:00,62.7,59.7,29.64,South,169,5.0,6.0,90,0.00,,,0.00,LWC V2.11 B50,2013-02-25 04:28:00,
2013-02-24 22:33:00,62.6,59.6,29.64,East,80,1.0,2.0,90,0.00,,,0.00,LWC V2.11 B50,2013-02-25 04:33:00,
2013-02-24 22:38:00,62.6,59.6,29.63,South,184,2.0,4.0,90,0.00,,,0.00,LWC V2.11 B50,2013-02-25 04:38:00,
2013-02-24 22:43:00,62.5,59.5,29.63,South,178,1.0,4.0,90,0.00,,,0.00,LWC V2.11 B50,2013-02-25 04:43:00,
2013-02-24 22:48:00,62.5,59.5,29.63,East,88,1.0,4.0,90,0.00,,,0.00,LWC V2.11 B50,2013-02-25 04:48:00,
2013-02-24 22:53:00,62.5,59.5,29.62,SSE,147,1.0,4.0,90,0.00,,,0.00,LWC V2.11 B50,2013-02-25 04:53:00,
2013-02-24 22:58:00,62.4,59.7,29.62,ESE,111,4.0,6.0,91,0.00,,,0.00,LWC V2.11 B50,2013-02-25 04:58:00,
2013-02-24 23:00:00,62.3,59.6,29.62,East,92,0.0,5.0,91,0.00,,,0.00,LWC V2.11 B50,2013-02-25 05:00:00,
2013-02-24 23:01:00,62.3,59.6,29.62,ESE,103,4.0,6.0,91,0.00,,,0.00,LWC V2.11 B50,2013-02-25 05:01:00,
2013-02-24 23:02:00,62.3,59.6,29.61,ESE,123,1.0,6.0,91,0.00,,,0.00,LWC V2.11 B50,2013-02-25 05:02:00,
2013-02-24 23:07:00,62.3,59.6,29.61,ESE,119,1.0,4.0,91,0.00,,,0.00,LWC V2.11 B50,2013-02-25 05:07:00,
2013-02-24 23:12:00,62.3,59.9,29.61,ESE,121,1.0,5.0,92,0.00,,,0.00,LWC V2.11 B50,2013-02-25 05:12:00,
2013-02-24 23:17:00,62.2,59.8,29.61,ESE,118,2.0,6.0,92,0.00,,,0.00,LWC V2.11 B50,2013-02-25 05:17:00,
2013-02-24 23:22:00,62.2,59.8,29.61,East,87,3.0,7.0,92,0.00,,,0.00,LWC V2.11 B50,2013-02-25 05:22:00,
2013-02-24 23:27:00,62.1,59.7,29.60,SE,126,1.0,6.0,92,0.00,,,0.00,LWC V2.11 B50,2013-02-25 05:27:00,
2013-02-24 23:32:00,62.0,59.6,29.60,SSW,201,2.0,5.0,92,0.00,,,0.00,LWC V2.11 B50,2013-02-25 05:32:00,
2013-02-24 23:37:00,61.9,59.8,29.60,ESE,110,1.0,6.0,93,0.00,,,0.00,LWC V2.11 B50,2013-02-25 05:37:00,
2013-02-24 23:42:00,61.8,59.8,29.60,South,179,4.0,5.0,93,0.00,,,0.00,LWC V2.11 B50,2013-02-25 05:42:00,
2013-02-24 23:47:00,61.8,59.8,29.59,SE,130,5.0,6.0,93,0.00,,,0.00,LWC V2.11 B50,2013-02-25 05:47:00,
2013-02-24 23:52:00,61.7,59.7,29.58,East,88,1.0,5.0,93,0.00,,,0.00,LWC V2.11 B50,2013-02-25 05:52:00,
2013-02-24 23:57:00,61.7,59.7,29.58,SSE,167,1.0,8.0,93,0.00,,,0.00,LWC V2.11 B50,2013-02-25 05:57:00,